Regional Weather Roundup
Issued by NWS

Home | Current Version | Previous Version | Text Only | Print | Product List | Glossary On
Versions: 1 2 3 4 5 6 7 8 9 10 11 12 13 14 15 16 17 18 19 20 21 22 23 24 25 26 27 28
000
ASCA42 TJSJ 051510
RWRPR
PUERTO RICO/U.S. VIRGIN ISLANDS HOURLY WEATHER ROUNDUP
NATIONAL WEATHER SERVICE SAN JUAN PR
1100 AM AST MON DEC 05 2016

PRZ001>002-007>008-010-051600-
PUERTO RICO

CITY           SKY/WX    TMP DP  RH WIND       PRES   REMARKS
SAN JUAN LMM   LGT RAIN  81  75  83 NE13      30.03S
AGUADILLA      CLOUDY    79  75  89 E10       30.04F
CEIBA          PTSUNNY   82  75  78 NE8       30.04F
$$

VIZ001>002-051600-
U.S. VIRGIN ISLANDS

CITY           SKY/WX    TMP DP  RH WIND       PRES   REMARKS
CHARLOTTE AMA  MOSUNNY   82  75  78 E10       30.02S
CHRISTIANSTED  MOSUNNY   84  72  65 E14       30.02F
$$

HOURLY WEATHER ROUNDUP FOR THE NEWS MEDIA

CITY           SKY/WX    TMP DP  RH WIND       PRES   REMARKS
ORLANDO        MOSUNNY   78  71  79 S15G22    30.01F
NEW YORK       PTSUNNY   45  40  82 SW15      30.02R
NEWARK         CLOUDY    42  39  89 W12       30.01R
CHICAGO        CLOUDY    32  31  96 S8        30.02R FOG     WCI  25
HARTFORD       LGT RAIN  38  37  97 CALM      30.01F FOG
BOSTON         LGT SNOW  34  34 100 S7        30.04F FOG     WCI  28
DALLAS         CLOUDY    49  44  83 E8        29.91F
PHILADELPHIA   CLOUDY    44  40  85 W12       30.04R
LOS ANGELES    FOG       53  53 100 E3        29.97R VSB 1/16
WASHINGTON DC  CLOUDY    42  39  89 CALM      30.03R



USA.gov is the U.S. government's official web portal to all federal, state and local government web resources and services.